Regional Weather Roundup
Issued by NWS

Home | Current Version | Previous Version | Graphics & Text | Print | Product List | Glossary Off
Versions: 1 2 3 4 5 6 7 8 9 10 11 12 13 14 15 16 17 18 19 20 21 22 23 24 25 26 27 28 29 30 31 32 33 34 35 36 37 38 39 40 41 42 43 44 45 46 47 48 49 50

000
ASUS43 KMKX 052021
RWRWI

WISCONSIN REGIONAL WEATHER ROUNDUP
NATIONAL WEATHER SERVICE MILWAUKEE/SULLIVAN WI
200 PM CST FRI FEB 05 2016

NOTE: "FAIR" INDICATES FEW OR NO CLOUDS BELOW 12,000 FEET WITH NO
SIGNIFICANT WEATHER AND/OR OBSTRUCTIONS TO VISIBILITY.

WIZ001-002-006>008-014>016-023>028-052100-
NORTHWEST WISCONSIN

CITY           SKY/WX    TMP DP  RH WIND       PRES   REMARKS
SUPERIOR ARPT  PTSUNNY   27  14  56 SW14      30.19F WCI  16
ASHLAND        PTSUNNY   27  10  49 SW10      30.22F WCI  17
HAYWARD        CLOUDY    22   9  57 S12       30.22F WCI  10
SIREN          CLOUDY    25  13  60 S7        30.23F WCI  17
CUMBERLAND     CLOUDY    21  10  63 S8        30.23F WCI  12
RICE LAKE      CLOUDY    22  12  65 S7        30.27F WCI  14
CHETEK         CLOUDY    22  11  62 SE8       30.26F WCI  12
LADYSMITH      CLOUDY    22  12  64 S6        30.27F WCI  15
EAU CLAIRE     CLOUDY    23  13  65 S9        30.28F WCI  13
MENOMONIE      CLOUDY    25  14  62 S7        30.29F WCI  18
NEW RICHMOND   CLOUDY    25  13  62 S9        30.25F WCI  15
OSCEOLA        CLOUDY    25  16  69 S7        30.28F WCI  17
$$

WIZ003>005-009-010-017-018-052100-
NORTH CENTRAL WISCONSIN

CITY           SKY/WX    TMP DP  RH WIND       PRES   REMARKS
MANITOWISH WTR CLOUDY    23   7  50 SW9       30.19F WCI  13
ARBOR VITAE    MOSUNNY   24  10  53 S7        30.20F WCI  16
WOODRUFF       MOSUNNY   24  10  53 S7        30.20F WCI  16
RHINELANDER    PTSUNNY   25   7  46 W3        30.21F
EAGLE RIVER    MOSUNNY   23   5  45 SW6       30.20F WCI  16
LAND O LAKES   MOSUNNY   26   4  40 CALM      30.20F
PHILLIPS       CLOUDY    23   9  54 S8        30.21F WCI  14
TOMAHAWK       SUNNY     27   8  45 CALM      30.23F
MEDFORD        MOSUNNY   21  11  66 S5        30.24F WCI  14
MERRILL        SUNNY     25  11  55 SW7       30.25F WCI  18
$$

WIZ029-030-035-036-043>047-052100-
CENTRAL WISCONSIN

CITY           SKY/WX    TMP DP  RH WIND       PRES   REMARKS
WAUSAU         SUNNY     26  10  50 NW5       30.24F WCI  20
MOSINEE        SUNNY     25  12  58 SW8       30.28F WCI  16
MARSHFIELD     SUNNY     23  11  60 NW6       30.26F WCI  16
STEVENS POINT  SUNNY     25  13  61 W6        30.28F WCI  18
WAUPACA        SUNNY     32  14  48 W5        30.30F WCI  27
WAUTOMA        SUNNY     30  15  53 SW8       30.31F WCI  22
WISC RAPIDS    SUNNY     26  14  60 SW5       30.30F WCI  20
CAMP DOUGLAS   CLOUDY    27  19  74 CALM      30.30F
$$

WIZ011>013-019>022-031-037>040-048>050-052100-
NORTHEAST WISCONSIN

CITY           SKY/WX    TMP DP  RH WIND       PRES   REMARKS
ANTIGO         SUNNY     24   9  53 W8        30.24F WCI  14
SHAWANO        SUNNY     30  13  48 W6        30.29F WCI  24
OCONTO         SUNNY     26  13  57 W7        30.30S WCI  19
STURGEON BAY   SUNNY     23  10  58 W9        30.31S WCI  13
GREEN BAY      CLOUDY    25  13  60 W10       30.30F WCI  15
MANITOWOC      CLOUDY    29  15  56 NW12      30.32F WCI  19
APPLETON       MOSUNNY   27  16  63 VRB5      30.28F WCI  21
CLINTONVILLE   SUNNY     30  14  51 SW6       30.29F WCI  24
OSHKOSH        SUNNY     26  15  63 W7        30.31F WCI  18
$$

WIZ032>034-041-042-053>061-052100-
SOUTHWEST WISCONSIN

CITY           SKY/WX    TMP DP  RH WIND       PRES   REMARKS
LA CROSSE      CLOUDY    24  13  62 S7        30.33F WCI  16
SPARTA         CLOUDY    26  15  62 W5        30.32F WCI  21
VIROQUA        CLOUDY    25  16  67 SW6       30.29F WCI  18
BOSCOBEL       MOSUNNY   29  15  56 SW6       30.34F WCI  23
PRAIRIE DU CHI PTSUNNY   27  14  56 SW6       30.35F WCI  21
PLATTEVILLE    CLOUDY    28  19  68 SW6       30.33F WCI  22
$$

WIZ056-057-062-063-064-067-068-052100-
SOUTH CENTRAL WISCONSIN

CITY           SKY/WX    TMP DP  RH WIND       PRES   REMARKS
REEDSBURG      CLOUDY    27  16  63 W7        30.32S WCI  19
BARABOO/DELLS  CLOUDY    27  15  59 SW8       30.31F WCI  19
LONE ROCK      CLOUDY    30  17  58 W5        30.34F WCI  25
MINERAL POINT  CLOUDY    28  19  69 W5        30.31F WCI  23
MADISON        PTSUNNY   28  14  55 VRB5      30.32F WCI  23
MIDDLETON      SUNNY     31  17  57 CALM      30.32F
WATERTOWN      SUNNY     28  17  63 W3        30.32S
MONROE         CLOUDY    30  19  64 W7        30.31F WCI  23
JANESVILLE     SUNNY     30  19  64 NW6       30.33F WCI  24
$$

WIZ051-052-058>065-066-070>072-052100-
SOUTHEAST WISCONSIN

CITY           SKY/WX    TMP DP  RH WIND       PRES   REMARKS
MILWAUKEE      PTSUNNY   31  15  52 NW8       30.32F WCI  23
WAUKESHA       SUNNY     27  18  69 NW9       30.32F WCI  17
MILWAUKEE/TIMM SUNNY    N/A N/A N/A NW9       30.32F
RACINE         SUNNY     31  16  54 NW7       30.33F WCI  24
BURLINGTON     SUNNY     30  16  56 W6        30.32F WCI  24
KENOSHA        SUNNY     31  20  63 W12       30.32F WCI  22
FOND DU LAC    MIX PCPN  26  14  60 W7        30.32F WCI  18
SHEBOYGAN      CLOUDY    26  14  60 W7        30.31F WCI  18
WEST BEND      SUNNY     28  14  54 W7        30.30F WCI  21
JUNEAU         SUNNY     25  14  63 SW6       30.33S WCI  18
$$

LSZ147-162-052100-
LAKE SUPERIOR

STATION/POSITION TIME  TEMP    WIND        PRES    WAVE
                       AIR SEA DIR/SP/G            HT/PER
                 (UTC) (F)     (DEG/KT/KT) (MB)    (FT/S)
DEVILS ISLAND    2000   23     170/  8/ 10 1024.3F
SAXON HARBOR     1900   26                 1024.0F
$$

LMZ867-665-643>646-052100-
LAKE MICHIGAN

STATION/POSITION TIME  TEMP    WIND        PRES    WAVE
                       AIR SEA DIR/SP/G            HT/PER
                 (UTC) (F)     (DEG/KT/KT) (MB)    (FT/S)
CHAMBERS ISLAND  1900   26     190/  3/  8 1025.7F
ALGOMA LAKESHORE 1941          260/  6/  9   N/A
KEWAUNEE LAKESHO 1900   25     280/  4/  8 1025.6F
SHEBOYGAN LAKESH 2000   26     270/  7/  9 1027.7F
PORT WASHINGTON  1900   29     300/  8/ 14 1027.8F
MILWAUKEE LAKESH 1910   29     290/  9/ 11   N/A
KENOSHA   LAKESH 2000   30     320/  8/ 11 1026.8F
$$

TC  - TEMPERATURE IN CELSIUS
VSB - VISIBILITY IN STATUTE MILES
WCI - WIND CHILL INDEX
HX  - HEAT INDEX




USA.gov is the U.S. government's official web portal to all federal, state and local government web resources and services.